Weather in Zhidka

Russia / Zabaykalsky Krai     51°46′11″N   117°13′13″E
temp.,
°C
wind,
m/s
gust,
m/s
humid.,
%
clouds,
%
prec.,
mm/h
press.,
hPa
HPBL,
m
14 june, mon
mon1400:00+15sw1180100 0.0 100411
03:00+14nne2289100 0.3 100240
06:00+14nw1189100 0.1 100326
09:00+14ne1196100 1.1 100338
12:00+17nw1185100 0.7 1002418
15:00+18nw2278100 3.9 1001540
18:00+19n1368100 1.1 1000583
21:00+16se1180100 1.1 100111
15 june, tue
tue1500:00+12wsw1190100 0.0 100110
03:00+10wsw11885 0.0 100110
06:00+10w118395 0.0 100211
09:00+17w355659 0.0 1002492
12:00+21wnw454052 0.0 10011741
15:00+21w4540100 0.0 10001759
18:00+22w2442100 0.0 9992103
21:00+16sw2261100 0.0 100115
16 june, wed
wed1600:00+13wsw1157100 0.0 100111
03:00+13w1161100 0.0 100111
06:00+12wsw1169100 0.0 100211
09:00+16nw126043 0.0 1002739
12:00+18n336692 2.6 1002857
15:00+19ne446595 4.8 10021106
18:00+20e455436 0.3 10001598
21:00+13nne1182100 1.8 100116
17 june, thu
thu1700:00+10n2290100 0.9 100115
03:00+9nnw2291100 0.9 100137
06:00+9nnw2791100 0.0 1001174
09:00+13nne586698 0.0 9991002
12:00+15nne61053100 0.0 9981912
15:00+18nne71344100 0.1 9962412
18:00+18nne51247100 0.0 9962192
21:00+15n41253100 0.0 996826
18 june, fri
fri1800:00+15n61446100 0.0 9961440
03:00+13nnw51250100 0.0 995817
06:00+12nnw41158100 0.0 995620
09:00+16nnw6134999 0.0 9952049
12:00+14nne41062100 0.0 9961305
15:00+13nnw5867100 0.0 9961053
18:00+12nnw4974100 0.0 996649
21:00+13nw3871100 0.0 995480